Wind_Speed
11 10 9 8 8 8 7 5 5 5 5 4 4 4 4 5 4 4 4 5 5 5 5 5 5 4 4 3 3 3 2 1 2 1 1 2 2 2 3 3 4 4 4 4
13 12 11 10 10 10 8 6 7 7 7 6 5 5 6 6 5 4 4 4 4 5 5 5 5 5 4 4 4 3 2 2 2 3 3 3 3 4 4 5 5 5 5 5
14 13 12 12 11 10 9 9 9 9 8 7 6 7 7 6 5 5 4 4 5 5 6 6 6 5 5 5 5 5 4 3 4 4 5 5 5 5 6 6 6 6 6 6
16 15 14 13 13 11 11 11 10 10 8 8 7 7 8 7 7 6 6 5 5 5 6 7 7 6 6 6 6 6 6 5 5 6 6 7 6 7 7 7 8 8 8 8
17 16 15 14 14 13 13 13 12 11 10 9 9 8 10 9 7 7 7 6 6 7 7 7 8 8 7 7 7 7 7 7 8 8 8 8 8 8 9 9 9 9 10 10
19 18 17 16 16 15 15 14 14 13 11 11 11 9 10 9 8 7 7 7 7 8 8 8 9 9 9 9 9 9 9 10 10 10 9 10 10 10 10 11 11 11 11 11
20 20 19 19 18 17 16 14 12 11 12 13 13 11 10 10 9 8 8 8 8 9 9 9 10 10 11 11 11 11 11 11 12 12 12 12 12 12 12 12 12 13 13 13
21 20 20 20 19 18 17 15 14 13 13 12 14 12 11 10 10 10 10 10 10 11 11 11 11 11 11 11 12 12 12 12 13 13 13 13 12 12 13 13 13 13 13 13
22 21 21 21 20 20 19 18 16 16 15 14 15 16 13 12 12 11 12 12 12 13 13 13 13 12 12 12 12 12 13 13 13 14 13 13 14 14 14 14 14 14 14 14
24 23 23 22 21 21 21 19 17 17 17 16 16 17 16 15 14 14 14 14 14 14 14 14 14 14 13 13 13 13 14 14 15 14 14 15 15 15 15 15 16 16 16 15
25 25 24 24 23 23 23 21 20 20 19 18 17 17 18 17 17 17 17 16 16 15 15 15 15 15 14 14 14 14 14 15 15 15 15 16 17 17 17 17 17 18 18 17
27 26 26 26 25 25 25 24 22 22 22 21 20 19 19 19 19 19 19 19 18 18 18 17 17 16 15 15 15 15 15 15 16 16 18 19 19 18 18 18 19 20 20 19
28 28 27 25 25 26 27 26 25 24 24 23 21 19 20 20 20 20 20 20 19 19 19 19 19 18 17 17 17 17 17 18 18 19 19 20 20 20 20 20 21 21 21 21
29 29 29 27 25 26 27 27 27 26 25 25 23 21 21 21 21 21 21 21 21 20 20 20 20 20 20 20 20 20 20 21 21 21 21 21 22 22 21 21 21 22 22 22
30 30 30 29 28 28 28 28 28 27 27 26 24 23 21 22 22 23 22 22 22 22 21 21 21 22 22 22 22 22 23 24 24 24 24 24 24 24 23 23 23 23 23 23
30 31 31 31 29 28 28 28 28 27 27 27 25 24 23 22 23 23 23 22 22 22 22 22 23 23 24 24 25 26 26 26 25 26 26 26 26 25 25 25 25 25 25 24
31 31 30 29 29 29 28 27 27 28 27 26 26 24 23 23 22 22 22 23 22 22 22 23 24 25 25 26 27 27 28 27 27 27 27 27 27 27 27 26 26 26 26 26
31 30 30 29 29 30 28 27 27 27 26 26 26 24 24 23 23 23 23 22 22 23 24 24 26 27 26 26 27 27 27 27 27 27 28 28 28 28 28 27 27 27 27 27
31 31 30 30 29 29 27 27 26 26 25 25 24 23 23 23 23 24 24 23 24 24 24 25 26 26 27 27 27 27 27 27 27 27 27 27 27 28 28 27 27 27 27 28
32 31 31 31 29 28 27 26 26 25 26 24 23 23 23 23 23 24 25 25 25 24 24 25 26 26 26 26 26 27 26 26 26 26 26 27 27 27 26 26 26 26 27 27
32 33 32 31 31 29 28 25 25 26 25 23 23 23 23 23 24 24 25 26 26 26 26 26 26 26 26 26 27 27 26 26 26 26 26 27 27 27 26 26 26 27 27 27
32 33 33 32 31 31 29 27 27 26 25 24 23 23 24 24 25 26 26 26 27 27 27 27 27 26 26 26 27 27 27 27 27 27 26 27 27 26 26 27 27 28 27 27
33 33 34 33 32 30 29 28 27 26 26 25 24 24 24 25 25 26 27 27 27 28 28 27 27 26 27 27 28 28 28 28 27 28 27 26 26 27 27 27 27 28 28 29
32 32 33 33 32 30 29 28 27 26 25 25 24 24 24 24 25 26 26 27 27 26 26 27 28 28 28 28 28 27 27 27 28 27 26 26 26 26 27 27 27 28 29 30
32 32 32 32 31 31 29 28 27 26 25 25 25 25 25 25 25 25 25 26 25 26 27 28 29 29 28 28 27 27 27 28 28 27 27 27 27 28 28 28 28 29 30 30
30 30 31 32 31 31 30 28 27 27 26 25 25 26 25 25 26 26 26 27 26 25 25 26 27 27 27 27 26 27 27 27 27 27 27 27 27 28 28 29 29 30 31 31
Wind_Direction
216 215 214 217 218 218 224 230 242 255 261 276 304 324 335 350 357 355 355 355 355 358 356 358 356 355 3 6 10 23 27 13 12 351 317 309 310 307 308 304 299 291 287 291
222 224 222 225 228 228 230 238 246 255 260 267 286 308 318 326 333 338 343 342 343 341 342 341 343 341 335 332 336 341 335 328 325 326 316 311 311 305 304 305 304 300 295 290
223 225 226 230 231 234 237 241 243 244 257 267 280 298 305 315 312 314 314 318 320 318 323 328 328 325 320 319 320 319 315 302 299 303 306 301 301 301 305 306 302 299 295 290
226 226 229 232 235 237 241 245 247 250 254 267 272 286 293 296 299 300 296 296 297 303 314 319 319 311 313 315 311 307 302 291 290 293 295 293 293 294 297 298 294 291 290 286
228 229 234 236 239 239 238 244 247 252 256 264 272 275 286 287 289 293 290 290 286 289 300 311 314 311 310 309 301 298 295 287 284 282 288 289 287 288 290 291 291 290 288 288
229 232 236 239 240 240 241 246 252 257 259 263 270 270 273 278 281 283 285 289 288 288 290 300 307 307 306 304 299 295 294 288 284 284 286 287 288 289 287 287 287 289 289 289
234 236 238 239 239 240 242 243 251 258 260 264 270 270 266 270 274 277 280 285 288 286 284 286 296 304 303 301 299 295 295 294 292 290 288 286 289 291 294 287 284 285 286 286
236 238 239 239 237 240 239 237 238 245 253 264 273 269 269 270 273 276 276 281 287 285 286 286 288 297 301 301 301 298 295 298 298 294 289 288 289 291 291 288 287 284 283 284
234 237 241 241 238 236 237 237 240 247 254 258 262 268 268 271 276 277 277 278 285 288 286 286 285 288 292 296 298 299 298 297 298 293 290 288 288 288 288 287 289 291 285 281
233 237 239 240 237 236 237 241 242 244 252 257 264 269 269 272 276 276 274 275 282 286 284 282 281 283 285 288 291 292 294 297 298 296 292 290 289 288 286 285 285 287 288 285
234 236 239 239 238 239 240 241 243 247 251 254 261 266 269 272 273 272 272 273 278 281 282 280 278 278 280 281 282 287 290 293 295 293 292 291 289 287 285 284 283 282 284 285
235 236 238 241 242 242 242 244 246 250 255 258 260 264 268 271 271 270 270 272 274 277 278 278 278 276 277 280 284 287 289 291 293 293 291 291 290 286 283 283 282 282 283 282
235 235 238 242 245 243 242 243 247 251 258 261 263 266 267 270 271 270 271 272 272 274 275 275 274 274 275 278 282 286 289 291 290 291 291 290 289 287 283 281 281 282 283 283
236 236 236 236 239 245 247 247 249 251 254 260 264 262 265 269 270 270 271 273 271 271 273 272 272 272 274 276 279 283 287 289 289 289 289 289 288 288 286 283 283 283 283 283
237 238 239 240 242 246 249 251 253 254 255 258 261 263 263 266 269 269 270 273 270 270 272 271 271 272 273 275 279 282 284 286 286 286 287 288 289 287 285 283 281 280 280 282
238 240 241 242 243 244 247 248 250 255 256 257 259 261 263 264 266 267 269 271 271 271 271 271 271 273 274 276 278 280 282 284 284 284 285 286 286 285 284 281 280 278 279 280
239 240 241 242 245 246 247 247 248 252 254 256 257 261 263 264 267 268 268 270 270 271 272 272 273 276 277 278 278 279 280 282 284 284 283 284 283 282 283 283 280 278 277 277
237 239 241 241 244 246 247 248 250 252 254 255 256 258 261 263 266 268 269 271 271 271 273 274 275 276 277 278 279 279 280 281 282 283 284 284 283 283 283 282 282 280 278 277
236 239 241 242 246 248 249 248 248 251 254 254 256 257 259 262 265 267 270 272 274 273 274 275 275 275 276 277 279 281 280 282 282 282 284 283 284 284 283 282 281 280 279 279
235 237 240 243 244 247 249 251 250 250 252 251 253 255 257 260 264 268 270 271 272 274 275 276 277 276 277 277 278 280 281 282 283 284 285 285 284 284 283 283 283 282 280 281
235 237 240 243 245 248 249 251 250 249 250 251 253 254 256 259 264 268 270 271 271 273 274 275 275 276 277 278 278 279 280 281 283 285 285 284 283 283 284 285 284 284 283 284
237 238 239 242 245 247 249 249 248 250 251 252 253 256 257 260 264 267 270 272 272 272 273 274 275 276 278 278 277 278 278 279 281 283 285 284 283 283 284 286 287 286 286 286
238 238 240 241 244 246 248 249 250 251 252 253 255 256 258 261 263 267 270 272 272 270 272 274 275 276 277 278 278 277 277 278 280 282 283 283 283 283 284 285 286 287 288 288
238 238 239 240 242 244 247 248 249 251 251 253 254 257 259 261 264 267 269 271 270 271 272 273 275 277 277 278 277 276 277 277 280 282 281 282 283 284 285 287 288 288 290 289
237 237 238 239 240 241 243 245 247 249 250 252 255 258 261 263 265 268 270 271 271 272 273 274 274 275 275 276 276 276 277 278 280 280 280 281 283 285 285 286 287 288 288 288
235 236 236 236 237 240 242 243 245 248 249 251 254 257 260 263 265 267 269 270 271 272 273 275 276 276 276 276 277 277 277 279 279 280 280 281 282 284 285 286 288 288 289 290
Height
5916 5919 5921 5922 5923 5924 5924 5925 5925 5925 5925 5924 5924 5923 5922 5921 5920 5919 5918 5917 5916 5915 5914 5913 5912 5911 5910 5909 5908 5907 5906 5906 5905 5905 5904 5903 5903 5902 5901 5901 5900 5899 5899 5898
5915 5917 5919 5919 5920 5921 5922 5923 5924 5924 5923 5923 5923 5923 5922 5921 5920 5918 5917 5917 5916 5915 5914 5913 5912 5911 5910 5909 5908 5907 5906 5906 5905 5904 5903 5903 5902 5901 5900 5900 5899 5898 5898 5897
5912 5915 5916 5917 5918 5919 5920 5921 5922 5922 5922 5922 5922 5922 5921 5920 5919 5918 5917 5916 5915 5914 5914 5913 5912 5911 5910 5909 5908 5907 5906 5905 5904 5903 5902 5902 5901 5900 5899 5898 5898 5897 5896 5895
5908 5911 5912 5913 5915 5916 5918 5918 5919 5919 5920 5921 5921 5922 5920 5919 5918 5917 5916 5915 5914 5913 5913 5912 5911 5910 5909 5908 5907 5906 5904 5903 5903 5902 5901 5901 5900 5899 5898 5897 5896 5895 5894 5894
5905 5907 5909 5910 5912 5913 5915 5915 5916 5917 5917 5919 5919 5920 5919 5917 5916 5916 5914 5914 5913 5912 5911 5911 5910 5908 5907 5906 5905 5904 5903 5902 5901 5900 5900 5899 5898 5897 5896 5895 5894 5893 5892 5891
5902 5903 5905 5907 5909 5910 5911 5913 5913 5914 5916 5917 5917 5917 5917 5915 5915 5914 5913 5912 5911 5910 5910 5909 5908 5907 5906 5904 5903 5902 5901 5901 5900 5899 5898 5897 5896 5894 5894 5893 5892 5891 5890 5889
5898 5899 5901 5903 5904 5906 5908 5911 5913 5914 5915 5915 5914 5913 5914 5912 5912 5911 5910 5910 5909 5908 5908 5907 5906 5905 5903 5902 5901 5900 5899 5898 5897 5896 5895 5894 5893 5892 5891 5890 5890 5889 5887 5886
5894 5896 5897 5898 5901 5903 5904 5907 5910 5912 5913 5913 5910 5910 5911 5909 5909 5908 5907 5907 5906 5906 5905 5904 5903 5902 5901 5900 5899 5897 5897 5896 5895 5893 5892 5891 5890 5889 5888 5887 5886 5885 5884 5883
5889 5892 5892 5894 5896 5898 5900 5902 5905 5907 5907 5908 5908 5907 5906 5906 5905 5905 5904 5904 5903 5902 5902 5901 5900 5899 5898 5897 5896 5895 5894 5893 5891 5890 5888 5887 5887 5886 5885 5884 5882 5882 5880 5879
5883 5886 5887 5889 5891 5893 5895 5897 5900 5901 5902 5903 5904 5903 5903 5902 5901 5901 5900 5900 5900 5899 5898 5897 5897 5896 5895 5894 5893 5892 5891 5889 5887 5886 5885 5884 5883 5882 5881 5880 5879 5878 5877 5875
5877 5880 5883 5884 5885 5888 5890 5892 5893 5896 5897 5899 5900 5902 5898 5897 5897 5896 5896 5896 5895 5895 5894 5893 5892 5892 5891 5890 5889 5888 5887 5885 5884 5882 5881 5880 5879 5877 5876 5875 5874 5873 5872 5871
5870 5874 5876 5878 5880 5882 5884 5886 5888 5890 5890 5891 5893 5897 5893 5892 5891 5891 5891 5890 5890 5890 5889 5888 5888 5887 5886 5886 5885 5884 5882 5881 5880 5879 5877 5876 5874 5873 5872 5871 5870 5868 5867 5866
5863 5867 5870 5872 5875 5875 5877 5879 5881 5883 5885 5885 5887 5891 5887 5886 5886 5885 5885 5885 5885 5884 5884 5883 5882 5882 5881 5881 5880 5879 5878 5876 5875 5874 5872 5871 5869 5868 5867 5866 5864 5863 5862 5861
5856 5859 5863 5867 5868 5869 5870 5872 5874 5876 5878 5879 5880 5882 5881 5880 5880 5880 5879 5879 5879 5878 5878 5877 5877 5876 5876 5876 5875 5874 5873 5871 5870 5868 5867 5865 5864 5862 5861 5860 5858 5857 5856 5855
5848 5851 5854 5857 5860 5862 5863 5865 5867 5868 5870 5872 5874 5874 5875 5874 5874 5874 5873 5873 5873 5872 5872 5872 5871 5871 5870 5870 5869 5868 5867 5866 5864 5863 5861 5859 5857 5856 5855 5853 5852 5851 5850 5848
5840 5843 5846 5849 5851 5853 5855 5858 5859 5861 5862 5864 5865 5867 5868 5867 5867 5867 5867 5867 5866 5866 5866 5865 5865 5864 5864 5863 5862 5861 5860 5859 5857 5856 5854 5852 5850 5849 5848 5846 5845 5844 5843 5841
5832 5835 5838 5841 5844 5845 5847 5850 5852 5854 5855 5857 5858 5860 5861 5861 5861 5861 5860 5860 5860 5860 5859 5859 5858 5858 5857 5856 5855 5854 5853 5851 5850 5848 5847 5845 5843 5842 5840 5839 5837 5836 5835 5834
5824 5827 5830 5833 5836 5837 5843 5843 5845 5846 5848 5849 5851 5852 5853 5854 5854 5854 5854 5854 5853 5853 5853 5852 5851 5850 5850 5849 5847 5846 5845 5843 5842 5841 5839 5837 5836 5834 5832 5831 5829 5828 5827 5826
5816 5819 5822 5826 5828 5830 5834 5835 5837 5839 5840 5842 5843 5845 5846 5846 5847 5847 5847 5847 5846 5846 5845 5845 5844 5843 5842 5841 5840 5838 5837 5835 5834 5833 5831 5829 5828 5826 5825 5823 5821 5820 5819 5818
5808 5811 5815 5817 5820 5823 5827 5828 5829 5832 5833 5835 5836 5838 5839 5839 5840 5841 5840 5840 5839 5839 5838 5837 5836 5835 5834 5833 5832 5831 5829 5828 5826 5825 5823 5822 5820 5818 5817 5815 5813 5812 5810 5809
5800 5803 5806 5809 5811 5815 5818 5820 5822 5825 5827 5828 5829 5830 5831 5832 5833 5834 5833 5832 5832 5831 5830 5829 5828 5828 5827 5826 5825 5823 5822 5821 5819 5818 5816 5814 5812 5811 5809 5807 5806 5804 5802 5801
5792 5795 5798 5801 5804 5808 5809 5812 5815 5817 5819 5820 5822 5823 5824 5825 5825 5825 5825 5825 5824 5823 5822 5821 5821 5820 5819 5818 5817 5816 5814 5813 5812 5810 5808 5806 5804 5803 5801 5800 5798 5796 5794 5793
5783 5787 5790 5793 5797 5799 5801 5804 5806 5809 5811 5813 5814 5816 5817 5817 5817 5817 5817 5817 5816 5815 5814 5814 5813 5812 5811 5810 5809 5807 5806 5805 5804 5802 5800 5798 5797 5795 5793 5792 5790 5788 5786 5784
5774 5778 5781 5784 5787 5790 5793 5796 5798 5801 5803 5805 5806 5808 5809 5809 5810 5810 5809 5809 5808 5807 5806 5805 5805 5804 5803 5801 5800 5799 5798 5797 5795 5794 5792 5790 5789 5787 5785 5783 5781 5780 5778 5775
5765 5769 5772 5775 5779 5782 5785 5788 5791 5793 5795 5797 5799 5800 5801 5802 5802 5802 5801 5801 5800 5799 5798 5797 5796 5795 5794 5793 5792 5791 5789 5788 5787 5785 5784 5782 5781 5779 5778 5776 5774 5772 5769 5767
5757 5761 5764 5767 5770 5774 5777 5780 5783 5785 5787 5789 5791 5793 5793 5794 5794 5794 5794 5793 5792 5791 5790 5789 5788 5786 5785 5784 5783 5782 5781 5779 5778 5776 5775 5773 5772 5771 5769 5767 5765 5763 5761 5758